PDT,Max TemperatureF,Mean TemperatureF,Min TemperatureF,Max Dew PointF,MeanDew PointF,Min DewpointF,Max Humidity, Mean Humidity, Min Humidity, Max Sea Level PressureIn, Mean Sea Level PressureIn, Min Sea Level PressureIn, Max VisibilityMiles, Mean VisibilityMiles, Min VisibilityMiles, Max Wind SpeedMPH, Mean Wind SpeedMPH, Max Gust SpeedMPH,PrecipitationIn, CloudCover, Events, WindDirDegrees
2012-10-1,66,60,53,54,50,48,88,74,52,30.30,30.22,30.15,20,20,20,12,6,21,0.00,6,Rain,129
2012-10-2,60,53,46,41,37,34,71,55,42,30.27,30.23,30.20,20,20,20,16,14,28,0.00,1,,280
2012-10-3,59,48,37,43,37,32,93,63,36,30.47,30.43,30.36,20,20,20,6,2,,0.00,1,,279
2012-10-4,57,45,33,43,39,32,100,72,51,30.38,30.35,30.31,20,20,20,6,1,,0.00,1,,276
2012-10-5,62,48,35,45,41,36,100,67,45,30.38,30.33,30.27,20,20,20,4,1,,0.00,0,,279
2012-10-6,66,52,37,45,42,37,100,64,40,30.30,30.26,30.18,20,20,20,4,1,,0.00,1,,270
2012-10-7,66,54,41,50,46,41,100,71,49,30.12,30.06,29.95,20,20,20,4,1,,0.00,2,,278
2012-10-8,66,54,42,50,47,41,100,73,52,30.00,29.97,29.95,20,20,20,5,1,,0.00,2,,282
2012-10-9,60,51,42,50,47,41,100,78,63,30.13,30.09,30.05,20,20,20,6,2,,0.00,1,,263
2012-10-10,50,49,48,48,48,46,100,94,93,30.06,30.04,30.01,8,4,2,2,0,,0.00,8,,205
2012-10-11,51,50,48,48,48,48,100,94,88,30.00,29.94,29.83,10,5,0,4,1,,0.00,8,Fog,114
2012-10-12,51,50,48,48,48,46,94,92,88,29.86,29.84,29.80,20,9,2,13,9,23,0.00,8,Rain,113
2012-10-13,55,53,51,54,53,52,100,95,94,30.04,30.02,29.99,20,12,2,10,7,23,0.00,8,Rain,115
2012-10-14,57,56,55,54,54,54,94,92,88,29.84,29.78,29.71,20,11,2,20,14,44,0.00,8,Rain,117
2012-10-15,51,50,50,50,49,48,94,93,88,29.88,29.70,29.41,20,11,2,14,6,32,0.00,8,Fog-Rain,113
2012-10-16,53,48,44,46,42,36,87,75,58,30.14,29.97,29.74,20,20,20,14,3,,0.00,5,Rain,299
2012-10-17,50,46,41,45,43,39,100,86,76,30.32,30.29,30.23,20,20,20,9,3,,0.00,6,Rain,114
2012-10-18,51,48,46,46,44,37,100,85,58,30.12,29.96,29.75,20,12,6,9,7,,0.00,8,Rain,106
2012-10-19,51,48,44,50,43,37,100,83,58,29.78,29.74,29.67,20,12,1,12,5,18,0.00,7,Fog-Rain,279
2012-10-20,46,42,37,39,37,36,100,83,71,29.82,29.80,29.78,20,15,5,8,2,20,0.00,7,Rain,107
2012-10-21,46,40,35,39,37,32,93,82,61,29.86,29.84,29.82,20,19,10,9,4,21,0.00,7,Rain,99
2012-10-22,46,40,33,39,36,32,93,82,66,29.75,29.67,29.61,20,20,20,6,1,,0.00,5,,275
2012-10-23,44,42,39,43,40,37,100,91,76,29.87,29.82,29.73,20,15,6,9,2,,0.00,7,Rain,114
2012-10-24,42,42,41,43,41,39,100,95,93,30.12,30.02,29.91,20,12,6,5,1,,0.00,8,Fog-Rain,273
2012-10-25,46,42,39,45,41,39,100,91,81,30.43,30.39,30.32,20,20,20,6,2,,0.00,6,Rain,114
2012-10-26,46,44,41,43,41,39,100,89,81,30.21,30.15,30.09,20,16,4,4,2,,0.00,8,Rain,97
2012-10-27,46,44,42,45,43,41,100,94,87,30.00,29.89,29.72,15,8,4,9,3,18,0.00,8,Rain,104
2012-10-28,51,48,46,48,47,45,100,91,82,29.93,29.90,29.88,20,17,2,8,3,,0.00,8,,118
2012-10-29,50,48,46,48,46,45,100,92,87,29.89,29.83,29.73,20,10,3,14,3,21,0.00,8,Fog-Rain,115
2012-10-30,31,38,21,50,42,19,100,94,59,30.51,29.99,29.79,6,1,0,12,3,,0.00,8,Fog-Rain,271
2012-10-31,50,35,20,50,42,19,100,96,92,30.22,29.74,29.59,6,2,0,8,2,,0.00,8,Fog-Rain,272